When you browse on this site, cookies collect data to enhance your experience and personalize the content and advertising you see.
Visit our Privacy Policy to learn more. By continuing to use the site, you agree to this use of cookies and data.
  • In United Kingdom
  • List of Countries
  • For 7 days
  • Water Temperature
  • Weather Map
  • Weather Widgets
  • user-avatar
    Login

    Hourly Weather Canberra

    Today, 16 September, Monday

    Time Temperature Precipitation Wind Pressure Humidity
    00:00 +11°C° 0 mm 1 mps 709 mmHg 77%
    01:00 +11°C° 0 mm 1 mps 709 mmHg 76%
    02:00 +10°C° 0 mm 1 mps 708 mmHg 77%
    03:00 +9°C° 0 mm 2 mps 708 mmHg 78%
    04:00 +9°C° 0 mm 2 mps 707 mmHg 77%
    05:00 +10°C° 0 mm 2 mps 707 mmHg 73%
    06:00 +10°C° 0 mm 2 mps 707 mmHg 70%
    07:00 +10°C° 0 mm 2 mps 708 mmHg 66%
    08:00 +13°C° 0 mm 3 mps 708 mmHg 58%
    09:00 +15°C° 0 mm 4 mps 709 mmHg 49%
    10:00 +19°C° 0 mm 5 mps 709 mmHg 37%
    11:00 +20°C° 0 mm 5 mps 709 mmHg 41%
    12:00 +20°C° 0 mm 4 mps 709 mmHg 45%
    13:00 +21°C° 0 mm 4 mps 709 mmHg 48%
    14:00 +19°C° 0.7 mm 4 mps 709 mmHg 60%
    15:00 +17°C° 0.7 mm 4 mps 709 mmHg 72%
    16:00 +14°C° 0 mm 3 mps 710 mmHg 80%
    17:00 +13°C° 1 mm 3 mps 710 mmHg 84%
    18:00 +12°C° 1 mm 2 mps 711 mmHg 87%
    19:00 +9°C° 1 mm 2 mps 711 mmHg 91%
    20:00 +7°C° 4.4 mm 3 mps 711 mmHg 93%
    21:00 +4°C° 4.4 mm 4 mps 711 mmHg 95%
    22:00 +1°C° 4.4 mm 4 mps 712 mmHg 97%
    23:00 +1°C° 2.2 mm 4 mps 712 mmHg 97%

    Tomorrow, 17 September, Tuesday

    Time Temperature Precipitation Wind Pressure Humidity
    00:00 +1°C° 2.2 mm 4 mps 712 mmHg 97%
    01:00 0°C° 2.2 mm 4 mps 712 mmHg 96%
    02:00 0°C° 0.3 mm 4 mps 712 mmHg 95%
    03:00 0°C° 0.3 mm 4 mps 712 mmHg 94%
    04:00 +1°C° 0.3 mm 3 mps 712 mmHg 93%
    05:00 +1°C° 0.5 mm 3 mps 712 mmHg 94%
    06:00 +1°C° 0.5 mm 4 mps 712 mmHg 95%
    07:00 +1°C° 0.5 mm 4 mps 713 mmHg 97%
    08:00 +3°C° 0.4 mm 4 mps 713 mmHg 96%
    09:00 +2°C° 0.4 mm 5 mps 713 mmHg 95%
    10:00 +3°C° 0.4 mm 5 mps 714 mmHg 95%
    11:00 +5°C° 0.1 mm 5 mps 714 mmHg 94%
    12:00 +5°C° 0.1 mm 5 mps 714 mmHg 92%
    13:00 +5°C° 0.1 mm 5 mps 714 mmHg 91%
    14:00 +5°C° 0 mm 5 mps 714 mmHg 90%
    15:00 +6°C° 0 mm 5 mps 714 mmHg 88%
    16:00 +6°C° 0 mm 5 mps 714 mmHg 87%
    17:00 +5°C° 0 mm 5 mps 715 mmHg 88%
    18:00 +4°C° 0 mm 4 mps 715 mmHg 89%
    19:00 +4°C° 0 mm 4 mps 716 mmHg 90%
    20:00 +3°C° 0 mm 3 mps 716 mmHg 92%
    21:00 +2°C° 0 mm 3 mps 716 mmHg 93%
    22:00 +2°C° 0 mm 3 mps 717 mmHg 95%
    23:00 +3°C° 0 mm 2 mps 717 mmHg 95%

    Day after tomorrow, 18 September, Wednesday

    Time Temperature Precipitation Wind Pressure Humidity
    00:00 +3°C° 0 mm 2 mps 717 mmHg 94%
    01:00 +2°C° 0 mm 2 mps 717 mmHg 94%
    02:00 +3°C° 0 mm 2 mps 717 mmHg 94%
    03:00 +3°C° 0 mm 2 mps 717 mmHg 93%
    04:00 +3°C° 0 mm 2 mps 717 mmHg 92%
    05:00 +3°C° 0 mm 2 mps 717 mmHg 91%
    06:00 +2°C° 0 mm 3 mps 717 mmHg 91%
    07:00 +2°C° 0 mm 3 mps 717 mmHg 90%
    08:00 +4°C° 0 mm 3 mps 718 mmHg 84%
    09:00 +7°C° 0 mm 3 mps 718 mmHg 78%
    10:00 +8°C° 0 mm 4 mps 718 mmHg 73%
    11:00 +10°C° 0 mm 3 mps 717 mmHg 71%
    12:00 +11°C° 0 mm 3 mps 717 mmHg 69%
    13:00 +12°C° 0 mm 3 mps 716 mmHg 67%
    14:00 +12°C° 0 mm 3 mps 716 mmHg 70%
    15:00 +12°C° 0 mm 3 mps 716 mmHg 72%
    16:00 +12°C° 0 mm 3 mps 715 mmHg 74%
    17:00 +10°C° 0 mm 3 mps 715 mmHg 81%
    18:00 +8°C° 0 mm 2 mps 716 mmHg 87%
    19:00 +7°C° 0 mm 2 mps 716 mmHg 94%
    20:00 +6°C° 0 mm 2 mps 716 mmHg 94%
    21:00 +6°C° 0 mm 2 mps 716 mmHg 94%
    22:00 +6°C° 0 mm 2 mps 716 mmHg 95%
    23:00 +6°C° 0 mm 2 mps 716 mmHg 95%

    19 September, Thursday

    Time Temperature Precipitation Wind Pressure Humidity
    00:00 +6°C° 0 mm 2 mps 715 mmHg 95%
    01:00 +7°C° 0 mm 2 mps 715 mmHg 96%
    02:00 +7°C° 0 mm 2 mps 715 mmHg 96%
    03:00 +8°C° 0 mm 2 mps 715 mmHg 96%
    04:00 +9°C° 0 mm 1 mps 715 mmHg 96%
    05:00 +10°C° 0 mm 1 mps 715 mmHg 95%
    06:00 +11°C° 0 mm 1 mps 715 mmHg 95%
    07:00 +11°C° 0 mm 1 mps 715 mmHg 94%
    08:00 +12°C° 0 mm 1 mps 715 mmHg 90%
    09:00 +14°C° 0 mm 2 mps 715 mmHg 86%
    10:00 +15°C° 0 mm 2 mps 715 mmHg 82%
    11:00 +16°C° 0 mm 2 mps 714 mmHg 78%
    12:00 +17°C° 0 mm 2 mps 714 mmHg 73%
    13:00 +18°C° 0 mm 3 mps 713 mmHg 68%
    14:00 +18°C° 0.2 mm 3 mps 713 mmHg 70%
    15:00 +18°C° 0.2 mm 3 mps 713 mmHg 72%
    16:00 +18°C° 0.2 mm 3 mps 712 mmHg 74%
    17:00 +16°C° 0.1 mm 3 mps 713 mmHg 81%
    18:00 +14°C° 0.1 mm 3 mps 713 mmHg 88%
    19:00 +12°C° 0.1 mm 3 mps 713 mmHg 95%
    20:00 +12°C° 0 mm 2 mps 713 mmHg 95%
    21:00 +12°C° 0 mm 2 mps 713 mmHg 96%
    22:00 +12°C° 0 mm 1 mps 713 mmHg 97%
    23:00 +11°C° 0 mm 1 mps 713 mmHg 97%

    20 September, Friday

    Time Temperature Precipitation Wind Pressure Humidity
    00:00 +11°C° 0 mm 1 mps 713 mmHg 97%
    01:00 +10°C° 0 mm 1 mps 712 mmHg 97%
    02:00 +10°C° 0 mm 1 mps 712 mmHg 97%
    03:00 +10°C° 0 mm 1 mps 712 mmHg 97%
    04:00 +8°C° 0 mm 0 mps 712 mmHg 97%
    05:00 +9°C° 0 mm 0 mps 712 mmHg 96%
    06:00 +10°C° 0 mm 1 mps 712 mmHg 95%
    07:00 +11°C° 0 mm 1 mps 713 mmHg 94%
    08:00 +13°C° 0 mm 2 mps 713 mmHg 85%
    09:00 +16°C° 0 mm 2 mps 713 mmHg 76%
    10:00 +18°C° 0 mm 3 mps 713 mmHg 66%
    11:00 +19°C° 0.1 mm 4 mps 712 mmHg 63%
    12:00 +20°C° 0.1 mm 4 mps 712 mmHg 61%
    13:00 +21°C° 0.1 mm 5 mps 711 mmHg 58%
    14:00 +20°C° 0.2 mm 5 mps 711 mmHg 63%
    15:00 +20°C° 0.2 mm 5 mps 710 mmHg 68%
    16:00 +19°C° 0.2 mm 4 mps 710 mmHg 73%
    17:00 +17°C° 0.5 mm 4 mps 710 mmHg 80%
    18:00 +14°C° 0.5 mm 3 mps 710 mmHg 87%
    19:00 +14°C° 0.5 mm 2 mps 710 mmHg 94%
    20:00 +13°C° 0.3 mm 2 mps 710 mmHg 94%
    21:00 +13°C° 0.3 mm 2 mps 709 mmHg 94%
    22:00 +13°C° 0.3 mm 2 mps 709 mmHg 94%
    23:00 +12°C° 0.2 mm 1 mps 708 mmHg 95%

    21 September, Saturday

    Time Temperature Precipitation Wind Pressure Humidity
    00:00 +12°C° 0.2 mm 1 mps 708 mmHg 95%
    01:00 +12°C° 0.2 mm 1 mps 707 mmHg 95%
    02:00 +12°C° 0.4 mm 1 mps 707 mmHg 95%
    03:00 +12°C° 0.4 mm 1 mps 707 mmHg 96%
    04:00 +12°C° 0.4 mm 1 mps 707 mmHg 96%
    05:00 +11°C° 0.7 mm 3 mps 708 mmHg 96%
    06:00 +12°C° 0.7 mm 5 mps 708 mmHg 96%
    07:00 +11°C° 0.7 mm 6 mps 709 mmHg 97%
    08:00 +11°C° 1.1 mm 6 mps 709 mmHg 96%
    09:00 +13°C° 1.1 mm 6 mps 709 mmHg 96%
    10:00 +13°C° 1.1 mm 5 mps 710 mmHg 95%
    11:00 +12°C° 0.4 mm 5 mps 709 mmHg 94%
    12:00 +12°C° 0.4 mm 4 mps 709 mmHg 93%
    13:00 +12°C° 0.4 mm 3 mps 709 mmHg 92%
    14:00 +11°C° 0.1 mm 3 mps 709 mmHg 91%
    15:00 +11°C° 0.1 mm 3 mps 709 mmHg 89%
    16:00 +11°C° 0.1 mm 3 mps 709 mmHg 88%
    17:00 +10°C° 0 mm 3 mps 710 mmHg 91%
    18:00 +9°C° 0 mm 2 mps 710 mmHg 93%
    19:00 +8°C° 0 mm 2 mps 711 mmHg 96%
    20:00 +7°C° 0 mm 2 mps 711 mmHg 95%
    21:00 +7°C° 0 mm 1 mps 712 mmHg 95%
    22:00 +7°C° 0 mm 1 mps 712 mmHg 94%
    23:00 +6°C° 0 mm 1 mps 712 mmHg 94%
    Show more